Stevensville, MD

4:53 AM EDT on July 26, 2017 (GMT -0400)
Stevensville

Weather History for KW29 - December, 2012

Change the Weather History Date:

Thursday, December 13, 2012

  Actual Average (KESN) Record (KESN)
Temperature  
Mean Temperature 39 °F -  
Max Temperature 46 °F 52 °F 71 °F (2015)
Min Temperature 32 °F 34 °F 10 °F (1958)
Degree Days  
Heating Degree Days 26    
Moisture  
Dew Point 27 °F    
Average Humidity 63    
Maximum Humidity 87    
Minimum Humidity 40    
Precipitation  
Precipitation 0.00 in - - ()
Sea Level Pressure  
Sea Level Pressure 30.41 in    
Wind  
Wind Speed 5 mph (NNE)    
Max Wind Speed 10 mph    
Max Gust Speed 17 mph    
Visibility 10 miles    
Events      
Averages and records for this station are not official NWS values.
T = Trace of Precipitation, MM = Missing Value Source: NWS Daily Summary

Daily Weather History Graph

Daily Weather History Graph

Search for Another Location

Airport or City:

Trip Planner

Search our weather history database for the weather conditions in past years. The results will help you decide how hot, cold, wet, or windy it might be!

Date:

Astronomy

Dec. 13, 2012 Rise Set
Actual Time 7:15 AM EST 4:43 PM EST
Civil Twilight 6:45 AM EST 5:13 PM EST
Nautical Twilight 6:12 AM EST 5:47 PM EST
Astronomical Twilight 5:39 AM EST 6:19 PM EST
Moon 7:22 AM EST (12/13) 5:23 PM EST (12/13)
Length of Visible Light 10h 27m
Length of Day
9h 27m
New Moon, 0% of the Moon is Illuminated
Dec 13
New Moon
Dec 20
First Quarter
Dec 28
Full
Jan 4
Last Quarter
Jan 11
New

Hourly Weather History & Observations

Time (EST) Temp. Windchill Dew Point Humidity Pressure Visibility Wind Dir Wind Speed Gust Speed Precip Events Conditions
12:06 AM 39.2 °F 35.9 °F 28.4 °F 65% 30.40 in 10.0 mi NNE 4.6 mph - N/A   Clear
12:27 AM 39.2 °F 34.2 °F 28.4 °F 65% 30.39 in 10.0 mi North 6.9 mph - N/A   Clear
12:49 AM 39.2 °F 35.0 °F 28.4 °F 65% 30.39 in 10.0 mi NNE 5.8 mph - N/A   Clear
1:10 AM 39.2 °F 34.2 °F 28.4 °F 65% 30.40 in 10.0 mi NNE 6.9 mph - N/A   Clear
1:31 AM 39.2 °F 35.0 °F 28.4 °F 65% 30.39 in 10.0 mi North 5.8 mph - N/A   Clear
1:53 AM 37.4 °F 32.1 °F 28.4 °F 70% 30.41 in 10.0 mi North 6.9 mph - N/A   Clear
2:14 AM 39.2 °F 37.0 °F 28.4 °F 65% 30.41 in 10.0 mi NNE 3.5 mph - N/A   Clear
2:56 AM 37.4 °F 32.8 °F 30.2 °F 75% 30.42 in 10.0 mi North 5.8 mph - N/A   Clear
3:18 AM 37.4 °F 32.8 °F 30.2 °F 75% 30.41 in 10.0 mi NNE 5.8 mph - N/A   Clear
3:39 AM 37.4 °F 32.8 °F 28.4 °F 70% 30.41 in 10.0 mi NNE 5.8 mph - N/A   Clear
4:00 AM 37.4 °F 32.8 °F 28.4 °F 70% 30.40 in 10.0 mi North 5.8 mph - N/A   Clear
4:22 AM 37.4 °F 32.8 °F 28.4 °F 70% 30.40 in 10.0 mi NE 5.8 mph - N/A   Clear
4:43 AM 37.4 °F 33.8 °F 28.4 °F 70% 30.42 in 10.0 mi North 4.6 mph - N/A   Clear
5:04 AM 37.4 °F 33.8 °F 28.4 °F 70% 30.42 in 10.0 mi North 4.6 mph - N/A   Clear
5:25 AM 37.4 °F 34.9 °F 28.4 °F 70% 30.43 in 10.0 mi NNE 3.5 mph - N/A   Clear
5:47 AM 37.4 °F 34.9 °F 28.4 °F 70% 30.42 in 10.0 mi North 3.5 mph - N/A   Clear
6:08 AM 37.4 °F 32.8 °F 28.4 °F 70% 30.43 in 10.0 mi NNE 5.8 mph - N/A   Clear
6:29 AM 37.4 °F 32.8 °F 28.4 °F 70% 30.43 in 10.0 mi NNE 5.8 mph - N/A   Clear
6:51 AM 37.4 °F 34.9 °F 28.4 °F 70% 30.43 in 10.0 mi NNE 3.5 mph - N/A   Clear
7:12 AM 37.4 °F 33.8 °F 28.4 °F 70% 30.43 in 10.0 mi NNE 4.6 mph - N/A   Clear
7:33 AM 37.4 °F 32.1 °F 28.4 °F 70% 30.43 in 10.0 mi NNE 6.9 mph - N/A   Clear
8:15 AM 37.4 °F 33.8 °F 28.4 °F 70% 30.43 in 10.0 mi NNE 4.6 mph - N/A   Clear
8:37 AM 39.2 °F 35.0 °F 28.4 °F 65% 30.44 in 10.0 mi NNE 5.8 mph - N/A   Clear
8:58 AM 41.0 °F 37.1 °F 28.4 °F 61% 30.44 in 10.0 mi NE 5.8 mph - N/A   Clear
9:19 AM 41.0 °F 37.1 °F 28.4 °F 61% 30.45 in 10.0 mi NNE 5.8 mph - N/A   Clear
9:40 AM 42.8 °F 39.3 °F 28.4 °F 57% 30.46 in 10.0 mi North 5.8 mph - N/A   Clear
10:01 AM 42.8 °F 38.0 °F 28.4 °F 57% 30.46 in 10.0 mi NNE 8.1 mph - N/A   Clear
10:23 AM 42.8 °F 38.0 °F 28.4 °F 57% 30.46 in 10.0 mi NE 8.1 mph - N/A   Clear
10:44 AM 44.6 °F 39.7 °F 26.6 °F 49% 30.46 in 10.0 mi North 9.2 mph - N/A   Clear
11:05 AM 44.6 °F 40.2 °F 23.0 °F 43% 30.45 in 10.0 mi NE 8.1 mph 16.1 mph N/A   Clear
11:26 AM 44.6 °F 40.2 °F 23.0 °F 43% 30.45 in 10.0 mi NNE 8.1 mph 17.3 mph N/A   Clear
11:48 AM 44.6 °F 40.2 °F 23.0 °F 43% 30.43 in 10.0 mi NE 8.1 mph - N/A   Clear
12:09 PM 44.6 °F 40.7 °F 23.0 °F 43% 30.43 in 10.0 mi NE 6.9 mph - N/A   Clear
1:13 PM 46.4 °F 42.9 °F 24.8 °F 43% 30.41 in 10.0 mi North 6.9 mph - N/A   Clear
1:34 PM 46.4 °F 42.4 °F 24.8 °F 43% 30.41 in 10.0 mi North 8.1 mph - N/A   Clear
1:55 PM 46.4 °F 43.5 °F 23.0 °F 40% 30.41 in 10.0 mi NNE 5.8 mph - N/A   Clear
2:16 PM 46.4 °F 42.4 °F 26.6 °F 46% 30.41 in 10.0 mi NNW 8.1 mph - N/A   Clear
2:37 PM 44.6 °F 39.2 °F 28.4 °F 53% 30.41 in 10.0 mi NNW 10.4 mph - N/A   Clear
2:59 PM 44.6 °F 40.2 °F 26.6 °F 49% 30.41 in 10.0 mi North 8.1 mph - N/A   Clear
3:20 PM 44.6 °F 41.4 °F 26.6 °F 49% 30.39 in 10.0 mi North 5.8 mph - N/A   Clear
3:41 PM 44.6 °F 40.7 °F 26.6 °F 49% 30.40 in 10.0 mi North 6.9 mph - N/A   Clear
4:02 PM 44.6 °F 41.4 °F 26.6 °F 49% 30.39 in 10.0 mi North 5.8 mph - N/A   Clear
4:23 PM 44.6 °F 43.1 °F 26.6 °F 49% 30.39 in 10.0 mi North 3.5 mph - N/A   Clear
4:45 PM 42.8 °F - 26.6 °F 53% 30.39 in 10.0 mi Calm Calm - N/A   Clear
5:06 PM 42.8 °F - 26.6 °F 53% 30.38 in 10.0 mi Calm Calm - N/A   Clear
5:27 PM 41.0 °F - 24.8 °F 53% 30.39 in 10.0 mi Calm Calm - N/A   Clear
6:10 PM 37.4 °F - 26.6 °F 65% 30.39 in 10.0 mi Calm Calm - N/A   Clear
7:13 PM 35.6 °F - 26.6 °F 70% 30.39 in 10.0 mi Calm Calm - N/A   Clear
7:34 PM 35.6 °F - 26.6 °F 70% 30.39 in 10.0 mi Calm Calm - N/A   Clear
7:56 PM 35.6 °F - 28.4 °F 75% 30.38 in 10.0 mi Calm Calm - N/A   Clear
8:17 PM 35.6 °F - 28.4 °F 75% 30.38 in 10.0 mi Calm Calm - N/A   Clear
8:38 PM 35.6 °F - 28.4 °F 75% 30.38 in 10.0 mi Calm Calm - N/A   Clear
8:59 PM 33.8 °F - 28.4 °F 81% 30.38 in 10.0 mi Calm Calm - N/A   Clear
10:24 PM 33.8 °F - 28.4 °F 81% 30.36 in 10.0 mi Calm Calm - N/A   Clear
10:46 PM 32.0 °F - 28.4 °F 87% 30.36 in 10.0 mi Calm Calm - N/A   Clear
11:07 PM 33.8 °F - 28.4 °F 81% 30.36 in 10.0 mi Calm Calm - N/A   Clear
11:49 PM 32.0 °F - 28.4 °F 87% 30.36 in 10.0 mi Calm Calm - N/A   Clear